HP1PCR-13 Weather Reports


Display with metric or nautical units.
time (UTC)temp
F
wind
direction
speed
MPH
gust
MPH
rain 1hr
in
rain 24hr
in
rain mn
in
humidity
%
barometer
mb
20260504050404 89 0.0 0.0 0.00 0.00 0.00 43 1004.6
20260504045359 89 0.0 0.0 0.00 0.00 0.00 43 1004.7
20260504044357 89 0.0 0.0 0.00 0.00 0.00 42 1004.8
20260504043352 89 0.0 0.0 0.00 0.00 0.00 42 1004.9
20260504042347 88 0.0 0.0 0.00 0.00 0.00 42 1004.9
20260504041343 88 0.0 0.0 0.00 0.00 0.00 42 1004.9
20260504040339 88 0.0 0.0 0.00 0.00 0.00 41 1004.8
20260504035335 88 0.0 0.0 0.00 0.00 0.00 40 1005.0
20260504033327 87 0.0 0.0 0.00 0.00 0.00 40 1005.1
20260504032323 87 0.0 0.0 0.00 0.00 0.00 39 1005.1
20260504031319 87 0.0 0.0 0.00 0.00 0.00 37 1005.0
20260504030314 86 0.0 0.0 0.00 0.00 0.00 36 1004.9
20260504025310 86 0.0 0.0 0.00 0.00 0.00 35 1004.9
20260504024306 86 0.0 0.0 0.00 0.00 0.00 33 1004.9
20260504023302 86 0.0 0.0 0.00 0.00 0.00 32 1004.9
20260504022258 86 0.0 0.0 0.00 0.00 0.00 33 1004.8
20260504014241 86 0.0 0.0 0.00 0.00 0.00 30 1004.3
20260504013237 87 0.0 0.0 0.00 0.00 0.00 31 1004.3
20260504012234 87 0.0 0.0 0.00 0.00 0.00 31 1004.1
20260504010225 87 0.0 0.0 0.00 0.00 0.00 34 1004.2
20260504005221 88 0.0 0.0 0.00 0.00 0.00 35 1004.3
20260504004217 88 0.0 0.0 0.00 0.00 0.00 37 1004.4
20260504003213 88 0.0 0.0 0.00 0.00 0.00 35 1004.2
20260504002210 88 0.0 0.0 0.00 0.00 0.00 33 1004.2
20260504001205 89 0.0 0.0 0.00 0.00 0.00 33 1004.1
20260504000201 89 0.0 0.0 0.00 0.00 0.00 34 1003.9
20260503235156 90 0.0 0.0 0.00 0.00 0.00 34 1003.7
20260503234152 90 0.0 0.0 0.00 0.00 0.00 34 1003.7
20260503233148 91 0.0 0.0 0.00 0.00 0.00 35 1003.5
20260503232144 92 0.0 0.0 0.00 0.00 0.00 37 1003.5
20260503231139 92 0.0 0.0 0.00 0.00 0.00 41 1003.3
20260503230136 93 0.0 0.0 0.00 0.00 0.00 41 1003.1
20260503225132 93 0.0 0.0 0.00 0.00 0.00 41 1003.0
20260503224128 93 0.0 0.0 0.00 0.00 0.00 41 1003.0
20260503223123 93 0.0 0.0 0.00 0.00 0.00 41 1003.0
20260503222119 93 0.0 0.0 0.00 0.00 0.00 41 1003.1
20260503221115 93 0.0 0.0 0.00 0.00 0.00 41 1003.2
20260503215107 93 0.0 0.0 0.00 0.00 0.00 41 1003.0
20260503214104 93 0.0 0.0 0.00 0.00 0.00 41 1003.0
20260503213059 93 0.0 0.0 0.00 0.00 0.00 41 1003.1
20260503212055 93 0.0 0.0 0.00 0.00 0.00 41 1003.1
20260503211050 92 0.0 0.0 0.00 0.00 0.00 41 1003.1
20260503210046 92 0.0 0.0 0.00 0.00 0.00 41 1003.2
20260503205042 92 0.0 0.0 0.00 0.00 0.00 41 1003.2
20260503204038 92 0.0 0.0 0.00 0.00 0.00 41 1003.5
20260503203034 92 0.0 0.0 0.00 0.00 0.00 41 1003.5
20260503202030 92 0.0 0.0 0.00 0.00 0.00 41 1003.5
20260503201026 92 0.0 0.0 0.00 0.00 0.00 41 1003.5
20260503200022 92 0.0 0.0 0.00 0.00 0.00 41 1003.4
20260503195018 92 0.0 0.0 0.00 0.00 0.00 41 1003.7
20260503194013 92 0.0 0.0 0.00 0.00 0.00 41 1003.5
20260503193010 92 0.0 0.0 0.00 0.00 0.00 41 1003.6
20260503192005 92 0.0 0.0 0.00 0.00 0.00 42 1003.6
20260503191001 92 0.0 0.0 0.00 0.00 0.00 42 1003.7
20260503185957 92 0.0 0.0 0.00 0.00 0.00 42 1004.1
20260503184953 92 0.0 0.0 0.00 0.00 0.00 42 1004.2
20260503182945 92 0.0 0.0 0.00 0.00 0.00 42 1004.7
20260503181940 92 0.0 0.0 0.00 0.00 0.00 43 1004.9
20260503175933 91 0.0 0.0 0.00 0.00 0.00 44 1005.1
20260503173924 91 0.0 0.0 0.00 0.00 0.00 47 1005.1
20260503172920 91 0.0 0.0 0.00 0.00 0.00 46 1005.1
20260503171916 91 0.0 0.0 0.00 0.00 0.00 46 1005.0
20260503170911 91 0.0 0.0 0.00 0.00 0.00 48 1005.3
20260503110554 89 0.0 0.0 0.00 0.00 0.00 41 1004.6